CW0783 Weather Reports


Display with metric or nautical units.
time (UTC)temp
F
wind
direction
speed
MPH
gust
MPH
rain 1hr
in
rain 24hr
in
rain mn
in
humidity
%
barometer
mb
20260906093712 68 112 0.0 0.0 0.00 0.00 0.00 97 1018.8
20260906093208 68 113 0.0 0.0 0.00 0.00 0.00 98 1018.5
20260906092702 68 113 0.0 0.0 0.00 0.00 0.00 98 1018.6
20260906092201 68 113 0.0 0.0 0.00 0.00 0.00 97 1018.5
20260906091658 68 113 0.0 0.0 0.00 0.00 0.00 98 1018.4
20260906091154 67 113 0.0 0.0 0.00 0.00 0.00 98 1018.1
20260906090650 67 109 0.0 0.0 0.00 0.00 0.00 98 1018.6
20260906090149 66 96 0.0 0.0 0.00 0.00 0.00 97 1018.5
20260906085649 66 96 0.0 0.0 0.00 0.00 0.00 97 1018.6
20260906085149 66 96 0.0 0.0 0.00 0.00 0.00 97 1018.5
20260906084649 66 96 0.0 0.0 0.00 0.00 0.00 97 1018.4
20260906084148 66 96 0.0 0.0 0.00 0.00 0.00 97 1018.7
20260906083643 66 94 0.0 0.0 0.00 0.00 0.00 97 1018.4
20260906083139 66 94 0.0 0.0 0.00 0.00 0.00 97 1018.7
20260906082634 66 94 0.0 0.0 0.00 0.00 0.00 97 1018.6
20260906082129 66 94 0.0 0.0 0.00 0.00 0.00 97 1018.6
20260906081625 66 94 0.0 0.0 0.00 0.00 0.00 97 1018.5
20260906081120 66 94 0.0 0.0 0.00 0.00 0.00 96 1018.5
20260906080617 66 94 0.0 0.0 0.00 0.00 0.00 97 1018.5
20260906080113 66 94 0.0 0.0 0.00 0.00 0.00 96 1018.8
20260906075612 66 94 0.0 0.0 0.00 0.00 0.00 96 1018.6
20260906075107 66 94 0.0 0.0 0.00 0.00 0.00 96 1018.4
20260906074603 67 94 0.0 0.0 0.00 0.00 0.00 96 1018.5
20260906074101 67 94 0.0 0.0 0.00 0.00 0.00 96 1018.5
20260906073556 67 94 0.0 0.0 0.00 0.00 0.00 96 1018.8
20260906073052 67 94 0.0 0.0 0.00 0.00 0.00 96 1018.6
20260906072552 67 94 0.0 0.0 0.00 0.00 0.00 96 1018.3
20260906072049 68 94 0.0 0.0 0.00 0.00 0.00 96 1018.4
20260906071545 68 94 0.0 0.0 0.00 0.00 0.00 96 1018.5
20260906071039 68 94 0.0 0.0 0.00 0.00 0.00 96 1018.5
20260906070536 68 94 0.0 0.0 0.00 0.00 0.00 95 1018.3
20260906070031 68 94 0.0 0.0 0.00 0.00 0.00 95 1018.5
20260906065530 68 94 0.0 0.0 0.00 0.00 0.00 95 1018.7
20260906065027 68 94 0.0 0.0 0.00 0.00 0.00 95 1018.4
20260906064523 68 94 0.0 0.0 0.00 0.00 0.00 94 1018.6
20260906064022 68 93 0.0 0.0 0.00 0.00 0.00 94 1018.3
20260906063518 68 93 0.0 0.0 0.00 0.00 0.00 94 1018.5
20260906063014 68 93 0.0 0.0 0.00 0.00 0.00 93 1018.5
20260906062509 68 93 0.0 0.0 0.00 0.00 0.00 93 1018.4
20260906062003 69 93 0.0 0.0 0.00 0.00 0.00 93 1018.5
20260906061500 69 93 0.0 0.0 0.00 0.00 0.00 92 1018.5
20260906060959 69 93 0.0 0.0 0.00 0.00 0.00 92 1018.3
20260906060456 70 91 0.0 0.0 0.00 0.00 0.00 92 1018.3
20260906055952 70 92 0.0 0.0 0.00 0.00 0.00 92 1018.2
20260906055448 70 83 0.0 0.0 0.00 0.00 0.00 91 1018.1
20260906054943 70 80 0.0 0.0 0.00 0.00 0.00 91 1018.2
20260906054443 70 90 0.0 0.0 0.00 0.00 0.00 91 1018.0
20260906053939 70 92 0.0 0.0 0.00 0.00 0.00 90 1017.9
20260906053435 71 61 1.0 1.0 0.00 0.00 0.00 90 1017.7
20260906052930 71 72 0.0 0.0 0.00 0.00 0.00 90 1017.9
20260906052427 71 71 1.0 2.0 0.00 0.00 0.00 90 1018.0
20260906051923 71 75 1.0 2.0 0.00 0.00 0.00 89 1017.8
20260906051418 71 73 1.0 2.0 0.00 0.00 0.00 89 1017.8
20260906050914 71 67 1.0 2.0 0.00 0.00 0.00 89 1017.6
20260906050413 72 77 0.0 2.0 0.00 0.00 0.00 89 1017.7
20260906045913 72 65 2.0 2.0 0.00 0.00 0.00 89 1017.7
20260906045411 72 82 1.0 2.0 0.00 0.00 0.00 89 1017.8
20260906044908 72 77 0.0 1.0 0.00 0.00 0.00 89 1017.7
20260906044408 72 101 0.0 0.0 0.00 0.00 0.00 88 1017.9
20260906043904 73 89 0.0 1.0 0.00 0.00 0.00 87 1017.8
20260906043400 73 110 0.0 2.0 0.00 0.00 0.00 87 1017.8
20260906042855 73 85 1.0 2.0 0.00 0.00 0.00 87 1017.3
20260906042353 73 77 1.0 3.0 0.00 0.00 0.00 86 1017.4
20260906041849 73 72 2.0 3.0 0.00 0.00 0.00 87 1017.5
20260906041345 73 67 3.0 3.0 0.00 0.00 0.00 87 1017.4
20260906040844 73 79 1.0 2.0 0.00 0.00 0.00 87 1017.5
20260906040340 73 72 1.0 2.0 0.00 0.00 0.00 87 1017.4
20260906035835 73 99 1.0 2.0 0.00 0.00 0.00 87 1017.4
20260906035330 73 94 1.0 3.0 0.00 0.00 0.00 87 1017.3
20260906034826 73 82 1.0 2.0 0.00 0.00 0.00 87 1017.5
20260906034321 73 80 2.0 3.0 0.00 0.00 0.00 87 1017.3
20260906033817 73 65 3.0 3.0 0.00 0.00 0.00 87 1017.3
20260906033315 73 78 2.0 3.0 0.00 0.00 0.00 88 1017.1
20260906032812 73 69 2.0 3.0 0.00 0.00 0.00 90 1017.3
20260906032308 73 74 1.0 2.0 0.00 0.00 0.00 92 1017.2
20260906031803 73 107 0.0 0.0 0.00 0.00 0.00 93 1017.0
20260906031259 73 93 0.0 0.0 0.00 0.00 0.00 93 1017.4
20260906030758 73 66 0.0 0.0 0.00 0.00 0.00 93 1017.3
20260906030253 73 82 0.0 0.0 0.00 0.00 0.00 93 1017.1
20260906025753 73 132 0.0 0.0 0.00 0.00 0.00 93 1017.2
20260906025247 73 153 0.0 0.0 0.00 0.00 0.00 93 1017.1
20260906024746 73 128 0.0 0.0 0.00 0.00 0.00 92 1017.4
20260906024245 73 130 0.0 0.0 0.00 0.00 0.00 92 1017.2
20260906023741 73 162 0.0 0.0 0.00 0.00 0.00 92 1017.3
20260906023236 73 147 0.0 0.0 0.00 0.00 0.00 92 1017.4
20260906022732 72 203 0.0 0.0 0.00 0.00 0.00 92 1017.3
20260906022227 72 122 0.0 0.0 0.00 0.00 0.00 92 1017.2
20260906021723 72 22 0.0 2.0 0.00 0.00 0.00 92 1017.2
20260906021221 72 171 0.0 2.0 0.00 0.00 0.00 92 1017.1
20260906020717 72 223 0.0 0.0 0.00 0.00 0.00 92 1017.4
20260906020212 72 181 0.0 0.0 0.00 0.00 0.00 91 1017.3
20260906015712 72 193 0.0 0.0 0.00 0.00 0.00 91 1017.4
20260906015210 72 48 0.0 2.0 0.00 0.00 0.00 91 1017.1
20260906014710 72 123 0.0 2.0 0.00 0.00 0.00 91 1017.0
20260906014206 71 199 0.0 1.0 0.00 0.00 0.00 91 1016.9
20260906013702 71 51 0.0 3.0 0.00 0.00 0.00 91 1016.7
20260906013157 71 227 0.0 0.0 0.00 0.00 0.00 91 1016.7
20260906012658 71 91 1.0 3.0 0.00 0.00 0.00 90 1016.7
20260906012157 72 33 1.0 2.0 0.00 0.00 0.00 90 1016.6
20260906011653 72 240 2.0 3.0 0.00 0.00 0.00 90 1016.4
20260906011148 72 263 0.0 1.0 0.00 0.00 0.00 90 1016.6
20260906010643 72 248 1.0 4.0 0.00 0.00 0.00 89 1016.7
20260906010139 72 199 0.0 2.0 0.00 0.00 0.00 89 1016.4
20260906005638 72 167 2.0 2.0 0.00 0.00 0.00 89 1016.4
20260906005138 72 243 1.0 2.0 0.00 0.00 0.00 89 1016.5
20260906004637 72 179 1.0 2.0 0.00 0.00 0.00 89 1016.6
20260906004132 72 185 1.0 2.0 0.00 0.00 0.00 89 1016.6
20260906003627 73 71 0.0 3.0 0.00 0.00 0.00 89 1016.6
20260906003123 73 222 1.0 2.0 0.00 0.00 0.00 89 1016.6
20260906002618 73 60 1.0 3.0 0.00 0.00 0.00 89 1016.3
20260906002113 73 131 0.0 1.0 0.00 0.00 0.00 89 1016.5
20260906001608 73 182 1.0 3.0 0.00 0.00 0.00 89 1016.2
20260906001103 73 207 1.0 2.0 0.00 0.00 0.00 89 1016.4
20260906000559 73 134 0.0 1.0 0.00 0.00 0.00 88 1016.2
20260906000054 73 122 0.0 2.0 0.00 0.00 0.00 88 1016.3
20260905235553 73 168 0.0 1.0 0.00 0.00 0.00 87 1016.3
20260905235048 73 30 0.0 0.0 0.00 0.00 0.00 87 1016.3
20260905234543 73 3 0.0 1.0 0.00 0.00 0.00 87 1016.4
20260905234038 74 90 1.0 6.0 0.00 0.00 0.00 87 1016.3
20260905233532 74 68 1.0 4.0 0.00 0.00 0.00 86 1016.1
20260905233032 74 52 0.0 1.0 0.00 0.00 0.00 86 1016.1
20260905232528 74 322 1.0 3.0 0.00 0.00 0.00 85 1016.3
20260905232023 75 141 0.0 4.0 0.00 0.00 0.00 86 1016.1
20260905231518 75 175 0.0 1.0 0.00 0.00 0.00 87 1016.3
20260905231015 75 120 1.0 2.0 0.00 0.00 0.00 86 1016.1
20260905230514 75 291 1.0 2.0 0.00 0.00 0.00 86 1016.1
20260905230012 75 85 1.0 2.0 0.00 0.00 0.00 86 1016.1
20260905225507 75 207 1.0 2.0 0.00 0.00 0.00 85 1016.0
20260905225002 75 276 1.0 3.0 0.00 0.00 0.00 84 1016.1
20260905224457 76 112 0.0 0.0 0.00 0.00 0.00 84 1015.7
20260905223956 75 231 2.0 8.0 0.00 0.00 0.00 84 1015.9
20260905223455 75 245 0.0 2.0 0.00 0.00 0.00 85 1016.1
20260905222950 75 203 0.0 3.0 0.00 0.00 0.00 84 1016.1
20260905222449 75 321 1.0 2.0 0.00 0.00 0.00 85 1016.1
20260905221945 75 26 2.0 3.0 0.00 0.00 0.00 85 1016.0
20260905221441 75 310 3.0 7.0 0.00 0.00 0.00 85 1016.2
20260905220937 75 251 1.0 3.0 0.00 0.00 0.00 84 1016.0
20260905220433 76 284 3.0 4.0 0.00 0.00 0.00 84 1016.1
20260905215932 76 223 0.0 1.0 0.00 0.00 0.00 84 1016.1
20260905215427 76 312 2.0 3.0 0.00 0.00 0.00 84 1016.0
20260905214924 76 96 0.0 3.0 0.00 0.00 0.00 83 1016.0
20260905214420 77 197 0.0 6.0 0.00 0.00 0.00 83 1015.9
20260905213919 76 78 1.0 3.0 0.00 0.00 0.00 83 1015.7
20260905213416 77 238 2.0 3.0 0.00 0.00 0.00 81 1015.8
20260905212911 78 153 1.0 2.0 0.00 0.00 0.00 81 1015.5
20260905212406 79 350 2.0 3.0 0.00 0.00 0.00 79 1015.6
20260905211905 78 176 0.0 1.0 0.00 0.00 0.00 81 1015.5
20260905211401 78 350 2.0 9.0 0.00 0.00 0.00 81 1015.6
20260905210857 78 257 2.0 7.0 0.00 0.00 0.00 81 1015.7
20260905210356 78 293 4.0 4.0 0.00 0.00 0.00 81 1015.6
20260905205856 78 216 0.0 3.0 0.00 0.00 0.00 80 1015.7
20260905205351 78 232 3.0 8.0 0.00 0.00 0.00 81 1015.6
20260905204849 78 13 1.0 4.0 0.00 0.00 0.00 81 1015.5
20260905204346 78 11 2.0 4.0 0.00 0.00 0.00 81 1015.6
20260905203844 78 15 2.0 7.0 0.00 0.00 0.00 82 1015.4
20260905203341 78 292 3.0 6.0 0.00 0.00 0.00 81 1015.8
20260905202836 78 273 1.0 2.0 0.00 0.00 0.00 81 1015.8
20260905202331 79 48 2.0 6.0 0.00 0.00 0.00 79 1015.9
20260905201827 79 334 5.0 6.0 0.00 0.00 0.00 81 1015.9
20260905201322 79 170 2.0 3.0 0.00 0.00 0.00 81 1015.8
20260905200822 79 287 0.0 10.0 0.00 0.00 0.00 80 1015.7
20260905200318 80 26 3.0 4.0 0.00 0.00 0.00 79 1015.6
20260905195815 80 112 2.0 3.0 0.00 0.00 0.00 78 1015.9
20260905195311 80 123 1.0 2.0 0.00 0.00 0.00 79 1015.9
20260905194807 80 318 1.0 6.0 0.00 0.00 0.00 77 1015.8
20260905194306 81 274 2.0 4.0 0.00 0.00 0.00 77 1015.7
20260905193806 81 341 1.0 3.0 0.00 0.00 0.00 78 1015.7
20260905193301 81 162 2.0 7.0 0.00 0.00 0.00 76 1015.7
20260905192756 82 333 4.0 4.0 0.00 0.00 0.00 74 1015.9
20260905192253 83 335 4.0 6.0 0.00 0.00 0.00 73 1015.9
20260905191752 83 292 2.0 3.0 0.00 0.00 0.00 74 1015.9
20260905191250 83 220 1.0 2.0 0.00 0.00 0.00 72 1015.7
20260905190749 84 244 1.0 7.0 0.00 0.00 0.00 72 1016.0
20260905190248 84 240 0.0 1.0 0.00 0.00 0.00 73 1015.7
20260905185747 84 87 2.0 6.0 0.00 0.00 0.00 72 1015.8
20260905185243 84 296 4.0 6.0 0.00 0.00 0.00 73 1016.0
20260905184742 84 280 2.0 6.0 0.00 0.00 0.00 72 1015.8
20260905184241 84 309 2.0 4.0 0.00 0.00 0.00 71 1015.9
20260905183735 84 307 4.0 6.0 0.00 0.00 0.00 71 1015.7
20260905183231 85 246 1.0 3.0 0.00 0.00 0.00 70 1015.8
20260905182730 86 79 2.0 4.0 0.00 0.00 0.00 69 1015.8
20260905182230 86 9 1.0 3.0 0.00 0.00 0.00 70 1015.7
20260905181725 86 4 1.0 3.0 0.00 0.00 0.00 69 1015.9
20260905181224 86 178 1.0 4.0 0.00 0.00 0.00 70 1015.8
20260905180720 86 114 1.0 3.0 0.00 0.00 0.00 70 1015.8
20260905180215 86 327 4.0 4.0 0.00 0.00 0.00 70 1015.8
20260905175714 86 350 2.0 6.0 0.00 0.00 0.00 67 1015.8
20260905175209 87 185 1.0 3.0 0.00 0.00 0.00 68 1015.6
20260905174704 87 109 0.0 2.0 0.00 0.00 0.00 67 1015.8
20260905174200 87 182 0.0 1.0 0.00 0.00 0.00 69 1015.8
20260905173656 87 183 1.0 3.0 0.00 0.00 0.00 68 1015.6
20260905173152 87 227 1.0 2.0 0.00 0.00 0.00 69 1015.8
20260905172651 87 247 0.0 1.0 0.00 0.00 0.00 67 1015.9
20260905172151 87 214 0.0 2.0 0.00 0.00 0.00 70 1015.9
20260905171647 87 324 1.0 2.0 0.00 0.00 0.00 70 1015.7
20260905171142 86 53 1.0 2.0 0.00 0.00 0.00 73 1015.7
20260905170640 84 160 0.0 2.0 0.00 0.00 0.00 75 1016.0
20260905170135 86 47 1.0 4.0 0.00 0.00 0.00 72 1016.0
20260905165629 87 138 0.0 0.0 0.00 0.00 0.00 70 1015.9
20260905165124 86 182 0.0 0.0 0.00 0.00 0.00 74 1015.9
20260905164619 85 314 0.0 0.0 0.00 0.00 0.00 75 1016.0
20260905164118 86 282 0.0 0.0 0.00 0.00 0.00 74 1016.2
20260905163615 86 357 0.0 0.0 0.00 0.00 0.00 75 1016.0
20260905163111 84 91 0.0 0.0 0.00 0.00 0.00 78 1016.2
20260905162607 85 16 0.0 0.0 0.00 0.00 0.00 78 1016.0
20260905162106 85 102 0.0 0.0 0.00 0.00 0.00 78 1015.8
20260905161606 85 241 0.0 0.0 0.00 0.00 0.00 77 1016.1
20260905161104 85 121 0.0 0.0 0.00 0.00 0.00 78 1016.2
20260905160603 83 217 0.0 0.0 0.00 0.00 0.00 81 1016.2
20260905155557 82 125 0.0 0.0 0.00 0.00 0.00 84 1015.9
20260905155055 82 43 0.0 0.0 0.00 0.00 0.00 84 1015.8
20260905154551 82 163 0.0 0.0 0.00 0.00 0.00 84 1015.9
20260905154046 82 73 0.0 0.0 0.00 0.00 0.00 83 1015.8
20260905153542 81 96 0.0 0.0 0.00 0.00 0.00 84 1015.8
20260905153042 81 189 0.0 0.0 0.00 0.00 0.00 86 1016.1
20260905152537 81 339 0.0 0.0 0.00 0.00 0.00 86 1016.0
20260905152032 81 136 0.0 0.0 0.00 0.00 0.00 87 1015.7
20260905151527 81 165 0.0 0.0 0.00 0.00 0.00 86 1015.9
20260905151022 80 300 0.0 0.0 0.00 0.00 0.00 88 1015.8
20260905150517 80 328 0.0 0.0 0.00 0.00 0.00 87 1015.8
20260905150016 80 303 0.0 0.0 0.00 0.00 0.00 87 1015.7
20260905145515 80 232 0.0 0.0 0.00 0.00 0.00 87 1015.6
20260905145014 81 299 0.0 0.0 0.00 0.00 0.00 86 1015.4
20260905144510 81 232 0.0 0.0 0.00 0.00 0.00 86 1015.4
20260905144008 82 211 0.0 0.0 0.00 0.00 0.00 85 1015.5
20260905143508 82 216 0.0 0.0 0.00 0.00 0.00 84 1015.5
20260905143003 83 47 0.0 0.0 0.00 0.00 0.00 83 1015.1
20260905142501 84 101 0.0 0.0 0.00 0.00 0.00 82 1015.1
20260905141957 83 64 0.0 0.0 0.00 0.00 0.00 82 1015.4
20260905141451 83 194 0.0 0.0 0.00 0.00 0.00 84 1015.5
20260905140948 83 123 0.0 0.0 0.00 0.00 0.00 85 1015.5
20260905140443 83 88 0.0 0.0 0.00 0.00 0.00 86 1015.4
20260905135942 83 213 0.0 0.0 0.00 0.00 0.00 86 1015.6
20260905135438 83 165 0.0 0.0 0.00 0.00 0.00 86 1015.4
20260905134933 82 158 0.0 0.0 0.00 0.00 0.00 88 1015.1
20260905134432 81 144 0.0 0.0 0.00 0.00 0.00 91 1015.1
20260905133932 80 114 0.0 0.0 0.00 0.00 0.00 92 1015.2
20260905133431 79 127 0.0 0.0 0.00 0.00 0.00 94 1015.1
20260905132932 79 122 0.0 0.0 0.00 0.00 0.00 94 1015.0
20260905132427 79 129 0.0 0.0 0.00 0.00 0.00 94 1015.2
20260905131922 78 123 0.0 0.0 0.00 0.00 0.00 94 1015.4
20260905131418 78 126 0.0 0.0 0.00 0.00 0.00 95 1015.4
20260905130918 78 145 0.0 0.0 0.00 0.00 0.00 96 1015.1
20260905130418 78 184 0.0 0.0 0.00 0.00 0.00 96 1014.9
20260905125917 78 105 0.0 0.0 0.00 0.00 0.00 97 1015.0
20260905125413 78 129 0.0 0.0 0.00 0.00 0.00 97 1015.0
20260905124908 77 120 0.0 0.0 0.00 0.00 0.00 97 1014.8
20260905124405 77 114 0.0 0.0 0.00 0.00 0.00 98 1015.0
20260905123904 77 93 0.0 0.0 0.00 0.00 0.00 98 1014.8
20260905123401 77 109 0.0 0.0 0.00 0.00 0.00 98 1014.7
20260905122856 76 113 0.0 0.0 0.00 0.00 0.00 98 1015.0
20260905122355 76 131 0.0 0.0 0.00 0.00 0.00 98 1014.6
20260905121851 75 129 0.0 0.0 0.00 0.00 0.00 98 1014.7
20260905121347 75 126 0.0 0.0 0.00 0.00 0.00 98 1014.8
20260905120845 75 108 0.0 0.0 0.00 0.00 0.00 98 1014.6
20260905120340 75 85 0.0 0.0 0.00 0.00 0.00 98 1014.4
20260905115835 75 134 0.0 0.0 0.00 0.00 0.00 98 1014.6
20260905115335 75 120 0.0 0.0 0.00 0.00 0.00 98 1014.3
20260905114829 74 150 0.0 0.0 0.00 0.00 0.00 98 1014.5
20260905114328 74 152 0.0 0.0 0.00 0.00 0.00 98 1014.4
20260905113828 74 152 0.0 0.0 0.00 0.00 0.00 98 1014.1
20260905113324 74 117 0.0 0.0 0.00 0.00 0.00 98 1014.2
20260905112819 74 132 0.0 0.0 0.00 0.00 0.00 98 1014.0
20260905112313 74 129 0.0 0.0 0.00 0.00 0.00 98 1014.2
20260905111808 74 179 0.0 0.0 0.00 0.00 0.00 98 1014.1
20260905111303 74 179 0.0 0.0 0.00 0.00 0.00 98 1014.1
20260905110803 74 179 0.0 0.0 0.00 0.00 0.00 98 1014.0
20260905110302 74 179 0.0 0.0 0.00 0.00 0.00 98 1014.0
20260905105758 74 180 0.0 0.0 0.00 0.00 0.00 98 1014.1
20260905105257 74 180 0.0 0.0 0.00 0.00 0.00 98 1014.0
20260905104751 74 177 0.0 0.0 0.00 0.00 0.00 98 1014.1
20260905104248 74 177 0.0 0.0 0.00 0.00 0.00 98 1014.3
20260905103747 74 177 0.0 0.0 0.00 0.00 0.00 98 1014.3
20260905103243 74 177 0.0 0.0 0.00 0.00 0.00 98 1014.4
20260905102738 74 181 0.0 0.0 0.00 0.00 0.00 98 1014.1
20260905102235 74 149 0.0 0.0 0.00 0.00 0.00 98 1014.1
20260905101734 74 149 0.0 0.0 0.00 0.00 0.00 98 1014.2
20260905101232 74 148 0.0 0.0 0.00 0.00 0.00 98 1014.1
20260905100728 74 163 0.0 0.0 0.00 0.00 0.00 98 1014.0
20260905100224 74 164 0.0 0.0 0.00 0.00 0.00 98 1014.0
20260905095724 74 164 0.0 0.0 0.00 0.00 0.00 98 1014.2
20260905095223 74 164 0.0 0.0 0.00 0.00 0.00 98 1014.2
20260905094718 74 160 0.0 0.0 0.00 0.00 0.00 98 1014.1
20260905094213 75 153 0.0 0.0 0.00 0.00 0.00 97 1013.9